RH
29 33 35 37 39 45 35 33 33 27 36 24 31 58 58 49 47 52 54 67 59 56 56 65 67 69 70 82 68 69 73 73 66 65 61 65 65 70 65 70 72 78 66 58
37 32 37 40 39 37 34 29 28 34 27 22 36 40 53 42 39 47 53 55 59 58 55 56 56 64 81 84 78 61 64 64 62 64 69 74 70 69 67 65 72 68 69 68
38 35 33 38 35 30 25 30 33 33 32 20 22 35 30 34 37 39 51 51 55 57 54 58 49 53 75 76 71 57 64 66 63 72 71 74 68 69 65 61 65 69 63 59
37 38 45 38 30 25 27 29 30 23 24 26 28 31 38 33 38 45 46 46 51 54 59 59 54 52 64 72 67 59 64 66 64 63 70 76 74 73 65 79 89 70 62 58
34 40 39 39 34 22 31 33 27 22 24 28 37 46 49 50 57 57 44 44 47 55 55 60 61 55 62 60 63 62 64 64 70 69 75 79 77 76 72 81 80 72 89 72
35 40 33 35 33 29 29 30 27 22 26 34 46 29 45 58 67 61 44 39 45 52 60 65 65 58 65 66 65 64 68 65 63 64 66 68 74 76 67 62 67 70 70 72
25 37 37 35 37 30 28 30 26 36 39 37 33 30 38 38 34 34 30 29 36 47 56 64 67 57 60 63 66 69 67 66 63 63 64 65 68 69 72 76 74 78 80 77
25 26 28 31 29 29 29 25 27 53 37 36 28 26 40 36 30 33 31 32 34 43 56 59 61 57 63 67 70 71 72 70 64 62 69 74 72 73 77 83 83 70 71 72
17 20 22 21 27 26 28 25 23 28 25 18 33 42 42 38 38 36 37 34 36 44 53 63 61 59 62 70 72 68 67 63 60 57 54 52 49 49 51 62 63 60 52 47
14 14 14 14 22 19 25 27 26 18 18 18 39 46 52 44 36 37 43 44 46 46 57 58 60 60 68 72 67 63 58 56 51 47 45 40 35 30 31 31 24 15 13 12
13 14 14 14 14 19 23 28 25 21 18 19 30 42 41 43 43 44 46 49 47 50 55 59 64 67 66 66 62 51 40 36 39 37 33 24 16 14 13 13 12 12 9 8
13 14 16 17 17 21 23 21 22 19 19 20 27 40 45 55 62 52 53 48 48 50 49 51 52 56 55 51 45 42 44 42 39 33 27 18 16 15 14 15 15 14 12 12
14 13 18 27 21 22 22 27 28 21 20 34 31 51 47 56 66 53 52 46 47 47 47 48 48 46 45 46 47 48 47 43 39 32 23 17 16 15 15 16 14 15 15 16
16 13 18 28 23 20 25 25 24 20 21 37 39 53 48 59 57 54 47 42 48 48 46 45 47 46 46 48 49 48 45 40 36 29 22 17 15 13 13 15 17 17 18 20
12 11 17 22 28 28 24 21 17 24 21 23 27 32 43 64 54 51 49 39 46 47 45 44 47 50 49 50 50 48 43 39 35 25 21 18 12 12 15 14 12 14 18 21
9 14 20 22 27 27 28 23 26 21 19 19 21 38 44 42 46 52 48 43 47 49 47 43 48 48 48 52 54 50 44 37 27 22 18 14 15 14 17 14 15 16 17 20
12 12 16 22 22 23 26 23 21 17 17 18 19 28 36 43 40 42 53 42 43 42 44 45 47 48 47 49 52 50 41 34 31 24 18 15 14 16 16 20 17 20 22 19
16 14 13 18 20 24 21 25 23 20 20 21 25 36 42 41 43 39 44 49 42 46 47 47 48 51 56 54 51 45 41 37 35 27 17 16 11 12 15 18 22 22 20 19
28 23 21 24 28 26 25 30 33 33 27 30 38 38 48 51 41 40 37 45 46 48 49 49 50 53 53 51 48 46 45 44 38 27 18 14 12 17 20 23 21 20 20 21
40 41 38 41 46 52 50 39 36 35 35 36 49 47 50 48 46 49 45 52 57 56 55 51 53 54 55 54 52 51 51 49 41 28 15 12 14 17 19 18 19 22 23 23
55 61 59 52 50 47 41 39 50 47 43 37 43 45 42 45 48 44 42 47 52 56 56 57 58 58 56 58 57 58 55 50 39 20 11 14 18 15 18 21 20 21 19 20
52 60 57 44 42 58 54 53 59 53 51 50 41 40 43 38 34 31 39 45 54 58 55 61 59 57 56 61 60 58 54 46 29 14 17 20 17 14 17 17 15 17 17 17
59 50 56 58 62 61 63 54 61 56 61 48 39 39 36 35 33 34 42 48 54 55 60 60 60 58 62 62 59 55 47 34 21 19 23 23 22 18 16 15 19 25 27 20
62 59 50 63 51 50 46 46 44 48 54 52 43 41 41 40 42 43 43 45 51 53 56 58 57 58 61 60 51 39 32 21 21 22 21 21 20 19 19 20 25 31 30 21
54 54 54 46 56 52 56 49 41 42 44 48 47 49 47 46 43 38 36 35 37 40 43 46 47 48 48 43 33 26 24 27 24 20 21 21 21 22 23 23 24 25 26 24
61 52 57 62 64 59 55 49 45 44 47 47 49 47 44 43 42 41 39 40 38 37 36 38 40 40 39 31 28 29 30 26 21 21 24 26 23 19 23 26 24 24 24 24